Location: Shenandoah County Park
(38.9356°N, 78.4524°W)
Time: 05:50:19
(UTC-05:00)

N. Korean satellite - Pass Details

Date: 03 December 2021
Orbit: 446 x 491 km, 97.3° (Epoch: 19 January)

Event Time Altitude Azimuth Distance (km) Brightness Sun altitude
Rises 04:57:40 0° 22° (NNE) 2,460 10.3 -26.2°
Reaches altitude 10° 04:59:52 10° 33° (NNE) 1,579 9.4 -25.8°
Maximum altitude 05:02:54 31° 97° (E) 811 8.3 -25.2°
Drops below altitude 10° 05:05:55 10° 162° (SSE) 1,566 9.4 -24.6°
Sets 05:08:05 0° 173° (S) 2,434 10.3 -24.2°
